,,PA_Meas_PMT16A,,PR_Meas_QMR101_102,,RH_Meas_QMH101,,SR_Meas_QMS101,,TA_Meas_QMH101,,GenWind,,GenWind,
time,status,PA,status,PR,status,RH,status,SR,status,TA,status,DirAvg,status,SpdAvg,
2013-03-23, 00:00:04,VALID,917.372,VALID,0,VALID,97.5569,VALID,0,VALID,19.1207,VALID,22,VALID,0,
2013-03-23, 00:01:05,VALID,917.382,VALID,0,VALID,97.5492,VALID,0,VALID,19.0998,VALID,22,VALID,0,
2013-03-23, 00:02:05,VALID,917.372,VALID,0,VALID,97.5569,VALID,0,VALID,19.1193,VALID,22,VALID,0,
2013-03-23, 00:03:05,VALID,917.374,VALID,0,VALID,97.5416,VALID,0,VALID,19.1388,VALID,21,VALID,0,
2013-03-23, 00:04:05,VALID,917.327,VALID,0,VALID,97.5645,VALID,0,VALID,19.1388,VALID,22,VALID,0,
2013-03-23, 00:05:05,VALID,917.316,VALID,0,VALID,97.5416,VALID,0,VALID,19.1388,VALID,22,VALID,0,
2013-03-23, 00:06:05,VALID,917.317,VALID,0,VALID,97.5492,VALID,0,VALID,19.1388,VALID,22,VALID,0,
2013-03-23, 00:07:05,VALID,917.288,VALID,0,VALID,97.5492,VALID,0,VALID,19.1583,VALID,22,VALID,0,
2013-03-23, 00:08:05,VALID,917.308,VALID,0,VALID,97.5492,VALID,0,VALID,19.1778,VALID,22,VALID,0,
2013-03-23, 00:09:05,VALID,917.282,VALID,0,VALID,97.5645,VALID,0,VALID,19.2182,VALID,22,VALID,0,
2013-03-23, 00:10:05,VALID,917.287,VALID,0,VALID,97.5569,VALID,0,VALID,19.1973,VALID,22,VALID,0,
2013-03-23, 00:11:05,VALID,917.266,VALID,0,VALID,97.5569,VALID,0,VALID,19.1973,VALID,22,VALID,0,
2013-03-23, 00:12:05,VALID,917.275,VALID,0,VALID,97.534,VALID,0,VALID,19.1778,VALID,21,VALID,0,
2013-03-23, 00:13:05,VALID,917.27,VALID,0,VALID,97.5569,VALID,0,VALID,19.1973,VALID,22,VALID,0,
2013-03-23, 00:14:05,VALID,917.283,VALID,0,VALID,97.5492,VALID,0,VALID,19.1973,VALID,21,VALID,0,
2013-03-23, 00:15:05,VALID,917.295,VALID,0,VALID,97.5416,VALID,0,VALID,19.1973,VALID,22,VALID,0,
2013-03-23, 00:16:05,VALID,917.258,VALID,0,VALID,97.5416,VALID,0,VALID,19.2168,VALID,22,VALID,0,
2013-03-23, 00:17:05,VALID,917.267,VALID,0,VALID,97.5645,VALID,0,VALID,19.1958,VALID,22,VALID,0,
2013-03-23, 00:18:05,VALID,917.227,VALID,0,VALID,97.5492,VALID,0,VALID,19.2168,VALID,22,VALID,0,
2013-03-23, 00:19:05,VALID,917.213,VALID,0,VALID,97.5492,VALID,0,VALID,19.1973,VALID,22,VALID,0,
2013-03-23, 00:20:05,VALID,917.216,VALID,0,VALID,97.5569,VALID,0,VALID,19.1778,VALID,22,VALID,0,
2013-03-23, 00:21:05,VALID,917.201,VALID,0,VALID,97.5569,VALID,0,VALID,19.1583,VALID,22,VALID,0,
2013-03-23, 00:22:05,VALID,917.189,VALID,0,VALID,97.5492,VALID,0,VALID,19.1178,VALID,21,VALID,0,
2013-03-23, 00:23:05,VALID,917.193,VALID,0,VALID,97.5721,VALID,0,VALID,19.0998,VALID,22,VALID,0,
2013-03-23, 00:24:05,VALID,917.16,VALID,0,VALID,97.5645,VALID,0,VALID,19.0803,VALID,21,VALID,0,
2013-03-23, 00:25:05,VALID,917.175,VALID,0,VALID,97.5569,VALID,0,VALID,19.0803,VALID,22,VALID,0,
2013-03-23, 00:26:05,VALID,917.147,VALID,0,VALID,97.5797,VALID,0,VALID,19.0608,VALID,22,VALID,0,
2013-03-23, 00:27:05,VALID,917.162,VALID,0,VALID,97.5797,VALID,0,VALID,19.0608,VALID,21,VALID,0,
2013-03-23, 00:28:05,VALID,917.146,VALID,0,VALID,97.5797,VALID,0,VALID,19.0608,VALID,21,VALID,0,
2013-03-23, 00:29:05,VALID,917.162,VALID,0,VALID,97.5873,VALID,0,VALID,19.0608,VALID,22,VALID,0,
2013-03-23, 00:30:05,VALID,917.168,VALID,0,VALID,97.5797,VALID,0,VALID,19.0218,VALID,114,VALID,0,
2013-03-23, 00:31:05,VALID,917.151,VALID,0,VALID,97.5569,VALID,0,VALID,19.0218,VALID,117,VALID,0,
2013-03-23, 00:32:05,VALID,917.136,VALID,0,VALID,97.5645,VALID,0,VALID,19.0218,VALID,135,VALID,0,
2013-03-23, 00:33:05,VALID,917.185,VALID,0,VALID,97.5797,VALID,0,VALID,19.0218,VALID,139,VALID,0,
2013-03-23, 00:34:05,VALID,917.165,VALID,0,VALID,97.5797,VALID,0,VALID,19.0218,VALID,144,VALID,0,
2013-03-23, 00:35:05,VALID,917.169,VALID,0,VALID,97.5721,VALID,0,VALID,19.0413,VALID,136,VALID,0,
2013-03-23, 00:36:05,VALID,917.155,VALID,0,VALID,97.5569,VALID,0,VALID,19.0413,VALID,128,VALID,0,
2013-03-23, 00:37:05,VALID,917.164,VALID,0,VALID,97.5873,VALID,0,VALID,19.0218,VALID,148,VALID,0,
2013-03-23, 00:38:05,VALID,917.128,VALID,0,VALID,97.5721,VALID,0,VALID,19.0218,VALID,125,VALID,0,
2013-03-23, 00:39:05,VALID,917.135,VALID,0,VALID,97.5569,VALID,0,VALID,19.0622,VALID,145,VALID,0,
2013-03-23, 00:40:05,VALID,917.133,VALID,0,VALID,97.5645,VALID,0,VALID,19.0608,VALID,144,VALID,0,
2013-03-23, 00:41:05,VALID,917.1,VALID,0,VALID,97.5721,VALID,0,VALID,19.0803,VALID,140,VALID,0,
2013-03-23, 00:42:05,VALID,917.087,VALID,0,VALID,97.5873,VALID,0,VALID,19.0998,VALID,130,VALID,0,
2013-03-23, 00:43:05,VALID,917.088,VALID,0,VALID,97.595,VALID,0,VALID,19.1207,VALID,152,VALID,0,
2013-03-23, 00:44:05,VALID,917.092,VALID,0,VALID,97.5797,VALID,0,VALID,19.1193,VALID,149,VALID,0,
2013-03-23, 00:45:05,VALID,917.093,VALID,0,VALID,97.5797,VALID,0,VALID,19.0998,VALID,126,VALID,0,
2013-03-23, 00:46:05,VALID,917.054,VALID,0,VALID,97.5873,VALID,0,VALID,19.0998,VALID,131,VALID,0,
2013-03-23, 00:47:05,VALID,917.061,VALID,0,VALID,97.5797,VALID,0,VALID,19.0788,VALID,139,VALID,0,
2013-03-23, 00:48:05,VALID,917.036,VALID,0,VALID,97.5797,VALID,0,VALID,19.0803,VALID,157,VALID,0,
2013-03-23, 00:49:05,VALID,917.075,VALID,0,VALID,97.5873,VALID,0,VALID,19.1207,VALID,147,VALID,0,
2013-03-23, 00:50:05,VALID,917.03,VALID,0,VALID,97.5645,VALID,0,VALID,19.1193,VALID,154,VALID,0,
2013-03-23, 00:51:05,VALID,917.026,VALID,0,VALID,97.5797,VALID,0,VALID,19.1193,VALID,156,VALID,0,
2013-03-23, 00:52:05,VALID,917.017,VALID,0,VALID,97.6026,VALID,0,VALID,19.0998,VALID,132,VALID,0,
2013-03-23, 00:53:05,VALID,916.994,VALID,0,VALID,97.5797,VALID,0,VALID,19.0998,VALID,170,VALID,0,
2013-03-23, 00:54:05,VALID,917.017,VALID,0,VALID,97.5797,VALID,0,VALID,19.0998,VALID,161,VALID,0,
2013-03-23, 00:55:05,VALID,917.004,VALID,0,VALID,97.5873,VALID,0,VALID,19.0608,VALID,140,VALID,0,
2013-03-23, 00:56:05,VALID,916.995,VALID,0,VALID,97.595,VALID,0,VALID,19.0608,VALID,136,VALID,0,
2013-03-23, 00:57:05,VALID,917.017,VALID,0,VALID,97.5873,VALID,0,VALID,19.0218,VALID,134,VALID,0,
2013-03-23, 00:58:05,VALID,917.002,VALID,0,VALID,97.6178,VALID,0,VALID,19.0218,VALID,114,VALID,0,
2013-03-23, 00:59:05,VALID,917.025,VALID,0,VALID,97.595,VALID,0,VALID,19.0023,VALID,106,VALID,0,
2013-03-23, 01:00:05,VALID,916.997,VALID,0,VALID,97.6178,VALID,0,VALID,18.9828,VALID,128,VALID,0,
2013-03-23, 01:01:05,VALID,917.019,VALID,0,VALID,97.595,VALID,0,VALID,18.9633,VALID,127,VALID,0,
2013-03-23, 01:02:05,VALID,917,VALID,0,VALID,97.5797,VALID,0,VALID,18.9438,VALID,133,VALID,0,
2013-03-23, 01:03:05,VALID,916.989,VALID,0,VALID,97.595,VALID,0,VALID,18.9243,VALID,124,VALID,0,
2013-03-23, 01:04:05,VALID,916.988,VALID,0,VALID,97.6026,VALID,0,VALID,18.9452,VALID,131,VALID,0,
2013-03-23, 01:05:05,VALID,916.963,VALID,0,VALID,97.6026,VALID,0,VALID,18.9243,VALID,130,VALID,0,
2013-03-23, 01:06:05,VALID,916.918,VALID,0,VALID,97.5797,VALID,0,VALID,18.9048,VALID,129,VALID,0,
2013-03-23, 01:07:05,VALID,916.9,VALID,0,VALID,97.6026,VALID,0,VALID,18.9243,VALID,122,VALID,0,
2013-03-23, 01:08:05,VALID,916.886,VALID,0,VALID,97.6026,VALID,0,VALID,18.9438,VALID,115,VALID,0,
2013-03-23, 01:09:05,VALID,916.88,VALID,0,VALID,97.6026,VALID,0,VALID,18.9438,VALID,148,VALID,0,
2013-03-23, 01:10:05,VALID,916.832,VALID,0,VALID,97.6102,VALID,0,VALID,18.9633,VALID,118,VALID,0,
2013-03-23, 01:11:05,VALID,916.832,VALID,0,VALID,97.595,VALID,0,VALID,18.9633,VALID,142,VALID,0,
2013-03-23, 01:12:05,VALID,916.785,VALID,0,VALID,97.6102,VALID,0,VALID,18.9633,VALID,140,VALID,0,
2013-03-23, 01:13:05,VALID,916.754,VALID,0,VALID,97.6026,VALID,0,VALID,18.9633,VALID,125,VALID,0,
2013-03-23, 01:14:05,VALID,916.712,VALID,0,VALID,97.6102,VALID,0,VALID,18.9452,VALID,131,VALID,0,
2013-03-23, 01:15:05,VALID,916.687,VALID,0,VALID,97.6026,VALID,0,VALID,18.8853,VALID,125,VALID,0,
2013-03-23, 01:16:05,VALID,916.688,VALID,0,VALID,97.6178,VALID,0,VALID,18.8658,VALID,122,VALID,0,
2013-03-23, 01:17:05,VALID,916.649,VALID,0,VALID,97.6102,VALID,0,VALID,18.8658,VALID,130,VALID,0,
2013-03-23, 01:18:05,VALID,916.609,VALID,0,VALID,97.6178,VALID,0,VALID,18.8463,VALID,130,VALID,0,
2013-03-23, 01:19:05,VALID,916.584,VALID,0,VALID,97.6178,VALID,0,VALID,18.8477,VALID,121,VALID,0,
2013-03-23, 01:20:05,VALID,916.586,VALID,0,VALID,97.6178,VALID,0,VALID,18.8463,VALID,151,VALID,0,
2013-03-23, 01:21:05,VALID,916.552,VALID,0,VALID,97.6102,VALID,0,VALID,18.8268,VALID,142,VALID,0,
2013-03-23, 01:22:05,VALID,916.549,VALID,0,VALID,97.6178,VALID,0,VALID,18.8268,VALID,126,VALID,0,
2013-03-23, 01:23:05,VALID,916.544,VALID,0,VALID,97.6178,VALID,0,VALID,18.8073,VALID,147,VALID,0,
2013-03-23, 01:24:05,VALID,916.475,VALID,0,VALID,97.6331,VALID,0,VALID,18.8073,VALID,146,VALID,0,
2013-03-23, 01:25:05,VALID,916.461,VALID,0,VALID,97.6255,VALID,0,VALID,18.7878,VALID,164,VALID,0,
2013-03-23, 01:26:05,VALID,916.442,VALID,0,VALID,97.6407,VALID,0,VALID,18.8087,VALID,164,VALID,0,
2013-03-23, 01:27:05,VALID,916.392,VALID,0,VALID,97.6255,VALID,0,VALID,18.7878,VALID,164,VALID,0,
2013-03-23, 01:28:05,VALID,916.352,VALID,0,VALID,97.6255,VALID,0,VALID,18.7683,VALID,157,VALID,0,
2013-03-23, 01:29:05,VALID,916.337,VALID,0,VALID,97.6407,VALID,0,VALID,18.7878,VALID,179,VALID,0,
2013-03-23, 01:30:05,VALID,916.288,VALID,0,VALID,97.6407,VALID,0,VALID,18.8087,VALID,168,VALID,0,
2013-03-23, 01:31:05,VALID,916.249,VALID,0,VALID,97.6178,VALID,0,VALID,18.7878,VALID,178,VALID,0,
2013-03-23, 01:32:05,VALID,916.216,VALID,0,VALID,97.6255,VALID,0,VALID,18.7878,VALID,181,VALID,0,
2013-03-23, 01:33:05,VALID,916.201,VALID,0,VALID,97.6255,VALID,0,VALID,18.7878,VALID,171,VALID,0,
2013-03-23, 01:34:05,VALID,916.17,VALID,0,VALID,97.6255,VALID,0,VALID,18.8073,VALID,171,VALID,0,
2013-03-23, 01:35:05,VALID,916.157,VALID,0,VALID,97.6255,VALID,0,VALID,18.7878,VALID,167,VALID,0,
2013-03-23, 01:36:05,VALID,916.146,VALID,0,VALID,97.6178,VALID,0,VALID,18.7683,VALID,164,VALID,0,
2013-03-23, 01:37:05,VALID,916.131,VALID,0.2,VALID,97.6407,VALID,0,VALID,18.7488,VALID,129,VALID,0,
2013-03-23, 01:38:05,VALID,916.135,VALID,0,VALID,97.6255,VALID,0,VALID,18.7488,VALID,153,VALID,0,
2013-03-23, 01:39:05,VALID,916.107,VALID,0,VALID,97.6255,VALID,0,VALID,18.7098,VALID,138,VALID,0,
2013-03-23, 01:40:05,VALID,916.096,VALID,0,VALID,97.6407,VALID,0,VALID,18.6903,VALID,148,VALID,0,
2013-03-23, 01:41:05,VALID,916.095,VALID,0,VALID,97.6255,VALID,0,VALID,18.7113,VALID,136,VALID,0,
2013-03-23, 01:42:05,VALID,916.07,VALID,0,VALID,97.6407,VALID,0,VALID,18.6708,VALID,127,VALID,0,
2013-03-23, 01:43:05,VALID,916.025,VALID,0,VALID,97.6255,VALID,0,VALID,18.6694,VALID,141,VALID,0,
2013-03-23, 01:44:05,VALID,916.011,VALID,0,VALID,97.6178,VALID,0,VALID,18.6903,VALID,151,VALID,0,
2013-03-23, 01:45:05,VALID,915.999,VALID,0,VALID,97.6407,VALID,0,VALID,18.6903,VALID,153,VALID,0,
2013-03-23, 01:46:05,VALID,915.991,VALID,0,VALID,97.6102,VALID,0,VALID,18.6708,VALID,153,VALID,0,
2013-03-23, 01:47:05,VALID,915.989,VALID,0,VALID,97.6331,VALID,0,VALID,18.6903,VALID,153,VALID,0,
2013-03-23, 01:48:05,VALID,915.968,VALID,0,VALID,97.6102,VALID,0,VALID,18.6903,VALID,147,VALID,0,
2013-03-23, 01:49:05,VALID,915.966,VALID,0,VALID,97.6331,VALID,0,VALID,18.6708,VALID,132,VALID,0,
2013-03-23, 01:50:05,VALID,915.963,VALID,0,VALID,97.6331,VALID,0,VALID,18.6513,VALID,125,VALID,0,
2013-03-23, 01:51:05,VALID,915.933,VALID,0,VALID,97.6255,VALID,0,VALID,18.6319,VALID,116,VALID,0,
2013-03-23, 01:52:05,VALID,915.913,VALID,0,VALID,97.6255,VALID,0,VALID,18.6319,VALID,130,VALID,0,
2013-03-23, 01:53:05,VALID,915.903,VALID,0,VALID,97.6255,VALID,0,VALID,18.6124,VALID,127,VALID,0,
2013-03-23, 01:54:05,VALID,915.874,VALID,0,VALID,97.6178,VALID,0,VALID,18.6138,VALID,130,VALID,0,
2013-03-23, 01:55:05,VALID,915.863,VALID,0,VALID,97.6331,VALID,0,VALID,18.5914,VALID,121,VALID,0,
2013-03-23, 01:56:05,VALID,915.852,VALID,0,VALID,97.6331,VALID,0,VALID,18.6333,VALID,106,VALID,0,
2013-03-23, 01:57:05,VALID,915.842,VALID,0,VALID,97.6331,VALID,0,VALID,18.6138,VALID,121,VALID,0,
2013-03-23, 01:58:05,VALID,915.81,VALID,0,VALID,97.6331,VALID,0,VALID,18.5929,VALID,120,VALID,0,
2013-03-23, 01:59:05,VALID,915.794,VALID,0,VALID,97.6331,VALID,0,VALID,18.5929,VALID,128,VALID,0,
2013-03-23, 02:00:05,VALID,915.787,VALID,0,VALID,97.6178,VALID,0,VALID,18.5734,VALID,133,VALID,0,
2013-03-23, 02:01:05,VALID,915.814,VALID,0,VALID,97.6331,VALID,0,VALID,18.5929,VALID,123,VALID,0,
2013-03-23, 02:02:05,VALID,915.816,VALID,0,VALID,97.6102,VALID,0,VALID,18.6124,VALID,136,VALID,0,
2013-03-23, 02:03:05,VALID,915.791,VALID,0,VALID,97.6026,VALID,0,VALID,18.6319,VALID,127,VALID,0,
2013-03-23, 02:04:05,VALID,915.807,VALID,0,VALID,97.6255,VALID,0,VALID,18.6528,VALID,130,VALID,0,
2013-03-23, 02:05:05,VALID,915.78,VALID,0,VALID,97.6102,VALID,0,VALID,18.6319,VALID,124,VALID,0,
2013-03-23, 02:06:05,VALID,915.804,VALID,0,VALID,97.6102,VALID,0.107441,VALID,18.6304,VALID,103,VALID,0,
2013-03-23, 02:07:05,VALID,915.78,VALID,0,VALID,97.6026,VALID,0.214882,VALID,18.6304,VALID,123,VALID,0,
2013-03-23, 02:08:05,VALID,915.728,VALID,0,VALID,97.6255,VALID,0.107441,VALID,18.6109,VALID,105,VALID,0,
2013-03-23, 02:09:05,VALID,915.73,VALID,0,VALID,97.6178,VALID,0.107441,VALID,18.6319,VALID,114,VALID,0,
2013-03-23, 02:10:05,VALID,915.686,VALID,0,VALID,97.6178,VALID,0.107441,VALID,18.6109,VALID,99,VALID,0,
2013-03-23, 02:11:05,VALID,915.643,VALID,0,VALID,97.6178,VALID,0,VALID,18.5943,VALID,112,VALID,0,
2013-03-23, 02:12:05,VALID,915.656,VALID,0,VALID,97.6255,VALID,0,VALID,18.5943,VALID,121,VALID,0,
2013-03-23, 02:13:05,VALID,915.599,VALID,0,VALID,97.6255,VALID,0,VALID,18.5734,VALID,135,VALID,0,
2013-03-23, 02:14:05,VALID,915.582,VALID,0,VALID,97.6102,VALID,0,VALID,18.5748,VALID,138,VALID,0,
2013-03-23, 02:15:05,VALID,915.58,VALID,0,VALID,97.6255,VALID,0,VALID,18.5553,VALID,158,VALID,0,
2013-03-23, 02:16:05,VALID,915.553,VALID,0,VALID,97.6178,VALID,0,VALID,18.5163,VALID,131,VALID,0,
2013-03-23, 02:17:05,VALID,915.524,VALID,0,VALID,97.6102,VALID,0,VALID,18.5163,VALID,127,VALID,0,
2013-03-23, 02:18:05,VALID,915.529,VALID,0,VALID,97.6102,VALID,0,VALID,18.5358,VALID,124,VALID,0,
2013-03-23, 02:19:05,VALID,915.496,VALID,0,VALID,97.6178,VALID,0,VALID,18.5149,VALID,132,VALID,0,
2013-03-23, 02:20:05,VALID,915.474,VALID,0,VALID,97.6102,VALID,0,VALID,18.5358,VALID,125,VALID,0,
2013-03-23, 02:21:05,VALID,915.454,VALID,0,VALID,97.6102,VALID,0,VALID,18.5149,VALID,156,VALID,0,
2013-03-23, 02:22:05,VALID,915.417,VALID,0,VALID,97.6483,VALID,0,VALID,18.5149,VALID,130,VALID,0,
2013-03-23, 02:23:05,VALID,915.393,VALID,0,VALID,97.6102,VALID,0,VALID,18.5163,VALID,157,VALID,0,
2013-03-23, 02:24:05,VALID,915.371,VALID,0,VALID,97.6255,VALID,0,VALID,18.4954,VALID,151,VALID,0,
2013-03-23, 02:25:05,VALID,915.366,VALID,0,VALID,97.6178,VALID,0,VALID,18.4968,VALID,174,VALID,0,
2013-03-23, 02:26:05,VALID,915.291,VALID,0,VALID,97.6178,VALID,0,VALID,18.4954,VALID,177,VALID,0,
2013-03-23, 02:27:05,VALID,915.258,VALID,0,VALID,97.6102,VALID,0,VALID,18.4954,VALID,181,VALID,0,
2013-03-23, 02:28:05,VALID,915.278,VALID,0,VALID,97.6178,VALID,0,VALID,18.4954,VALID,173,VALID,0,
2013-03-23, 02:29:05,VALID,915.227,VALID,0,VALID,97.6255,VALID,0.107441,VALID,18.4954,VALID,181,VALID,0,
2013-03-23, 02:30:05,VALID,915.175,VALID,0,VALID,97.6178,VALID,0.107441,VALID,18.4954,VALID,153,VALID,0,
2013-03-23, 02:31:05,VALID,915.196,VALID,0,VALID,97.6178,VALID,0.107441,VALID,18.5149,VALID,156,VALID,0,
2013-03-23, 02:32:05,VALID,915.199,VALID,0,VALID,97.6255,VALID,0.107441,VALID,18.5344,VALID,160,VALID,0,
2013-03-23, 02:33:05,VALID,915.148,VALID,0,VALID,97.6255,VALID,0,VALID,18.5135,VALID,154,VALID,0,
2013-03-23, 02:34:05,VALID,915.149,VALID,0,VALID,97.6026,VALID,0,VALID,18.533,VALID,147,VALID,0,
2013-03-23, 02:35:05,VALID,915.138,VALID,0,VALID,97.6026,VALID,0,VALID,18.5135,VALID,156,VALID,0,
2013-03-23, 02:36:05,VALID,915.143,VALID,0,VALID,97.595,VALID,0,VALID,18.5539,VALID,151,VALID,0,
2013-03-23, 02:37:05,VALID,915.139,VALID,0,VALID,97.6026,VALID,0.107441,VALID,18.5734,VALID,166,VALID,0,
2013-03-23, 02:38:05,VALID,915.092,VALID,0,VALID,97.5873,VALID,0.107441,VALID,18.5734,VALID,166,VALID,0,
2013-03-23, 02:39:05,VALID,915.077,VALID,0,VALID,97.5873,VALID,0.107441,VALID,18.533,VALID,170,VALID,0,
2013-03-23, 02:40:05,VALID,915.059,VALID,0,VALID,97.5873,VALID,0.107441,VALID,18.5734,VALID,148,VALID,0,
2013-03-23, 02:41:04,VALID,915.035,VALID,0,VALID,97.5797,VALID,0,VALID,18.5748,VALID,122,VALID,0,
2013-03-23, 02:42:04,VALID,914.987,VALID,0,VALID,97.5645,VALID,0,VALID,18.5748,VALID,151,VALID,0,
2013-03-23, 02:43:04,VALID,914.981,VALID,0,VALID,97.5645,VALID,0,VALID,18.5943,VALID,153,VALID,0,
2013-03-23, 02:44:04,VALID,914.978,VALID,0,VALID,97.5721,VALID,0,VALID,18.5748,VALID,138,VALID,0,
2013-03-23, 02:45:04,VALID,914.98,VALID,0,VALID,97.5797,VALID,0,VALID,18.5734,VALID,148,VALID,0,
2013-03-23, 02:46:04,VALID,914.965,VALID,0,VALID,97.5569,VALID,0,VALID,18.5734,VALID,167,VALID,0,
2013-03-23, 02:47:04,VALID,914.946,VALID,0,VALID,97.5416,VALID,0,VALID,18.6138,VALID,152,VALID,0,
2013-03-23, 02:48:04,VALID,914.918,VALID,0,VALID,97.5416,VALID,0,VALID,18.6138,VALID,168,VALID,0,
2013-03-23, 02:49:04,VALID,914.915,VALID,0,VALID,97.5492,VALID,0,VALID,18.6124,VALID,153,VALID,0,
2013-03-23, 02:50:04,VALID,914.875,VALID,0,VALID,97.5416,VALID,0,VALID,18.6138,VALID,170,VALID,0,
2013-03-23, 02:51:04,VALID,914.875,VALID,0,VALID,97.5416,VALID,0,VALID,18.5929,VALID,160,VALID,0,
2013-03-23, 02:52:04,VALID,914.852,VALID,0,VALID,97.534,VALID,0,VALID,18.5929,VALID,141,VALID,0,
2013-03-23, 02:53:04,VALID,914.807,VALID,0,VALID,97.534,VALID,0,VALID,18.5929,VALID,163,VALID,0,
2013-03-23, 02:54:04,VALID,914.791,VALID,0,VALID,97.5264,VALID,0,VALID,18.5929,VALID,166,VALID,0,
2013-03-23, 02:55:04,VALID,914.76,VALID,0,VALID,97.5264,VALID,0,VALID,18.5943,VALID,155,VALID,0,
2013-03-23, 02:56:04,VALID,914.747,VALID,0,VALID,97.5264,VALID,0.107441,VALID,18.5929,VALID,160,VALID,0,
2013-03-23, 02:57:04,VALID,914.704,VALID,0,VALID,97.5187,VALID,0,VALID,18.5734,VALID,165,VALID,0,
2013-03-23, 02:58:04,VALID,914.686,VALID,0,VALID,97.5264,VALID,0.107441,VALID,18.5734,VALID,137,VALID,0,
2013-03-23, 02:59:04,VALID,914.682,VALID,0,VALID,97.5187,VALID,0.107441,VALID,18.533,VALID,151,VALID,0,
2013-03-23, 03:00:04,VALID,914.671,VALID,0,VALID,97.5111,VALID,0.107441,VALID,18.5344,VALID,110,VALID,0,
2013-03-23, 03:01:04,VALID,914.658,VALID,0,VALID,97.5111,VALID,0,VALID,18.494,VALID,152,VALID,0,
2013-03-23, 03:02:04,VALID,914.613,VALID,0,VALID,97.4959,VALID,0,VALID,18.4954,VALID,124,VALID,0,
2013-03-23, 03:03:04,VALID,914.622,VALID,0,VALID,97.4882,VALID,0,VALID,18.4745,VALID,142,VALID,0,
2013-03-23, 03:04:04,VALID,914.614,VALID,0,VALID,97.4806,VALID,0,VALID,18.5149,VALID,125,VALID,0,
2013-03-23, 03:05:04,VALID,914.628,VALID,0,VALID,97.4577,VALID,0.107441,VALID,18.5149,VALID,126,VALID,0,
2013-03-23, 03:06:04,VALID,914.626,VALID,0,VALID,97.4654,VALID,0.107441,VALID,18.494,VALID,128,VALID,0,
2013-03-23, 03:07:04,VALID,914.616,VALID,0,VALID,97.4577,VALID,0.107441,VALID,18.5539,VALID,121,VALID,0,
2013-03-23, 03:08:04,VALID,914.62,VALID,0,VALID,97.4273,VALID,0.107441,VALID,18.572,VALID,122,VALID,0,
2013-03-23, 03:09:04,VALID,914.623,VALID,0,VALID,97.4196,VALID,0.107441,VALID,18.6124,VALID,115,VALID,0,
2013-03-23, 03:10:04,VALID,914.619,VALID,0,VALID,97.3891,VALID,0.107441,VALID,18.6903,VALID,126,VALID,0,
2013-03-23, 03:11:04,VALID,914.612,VALID,0,VALID,97.3586,VALID,0,VALID,18.6903,VALID,121,VALID,0,
2013-03-23, 03:12:04,VALID,914.61,VALID,0,VALID,97.3281,VALID,0.107441,VALID,18.6889,VALID,128,VALID,0,
2013-03-23, 03:13:04,VALID,914.571,VALID,0,VALID,97.29,VALID,0,VALID,18.6513,VALID,128,VALID,0,
2013-03-23, 03:14:04,VALID,914.564,VALID,0,VALID,97.2824,VALID,0,VALID,18.6513,VALID,120,VALID,0,
2013-03-23, 03:15:04,VALID,914.558,VALID,0,VALID,97.2138,VALID,0,VALID,18.7683,VALID,132,VALID,0,
2013-03-23, 03:16:04,VALID,914.546,VALID,0,VALID,97.1757,VALID,0,VALID,18.8268,VALID,125,VALID,0,
2013-03-23, 03:17:04,VALID,914.565,VALID,0,VALID,97.1147,VALID,0,VALID,18.8073,VALID,125,VALID,0,
2013-03-23, 03:18:04,VALID,914.556,VALID,0,VALID,97.0918,VALID,0,VALID,18.7878,VALID,136,VALID,0,
2013-03-23, 03:19:04,VALID,914.534,VALID,0,VALID,97.0842,VALID,0,VALID,18.7878,VALID,99,VALID,0,
2013-03-23, 03:20:04,VALID,914.538,VALID,0,VALID,97.0842,VALID,0,VALID,18.7488,VALID,119,VALID,0,
2013-03-23, 03:21:04,VALID,914.575,VALID,0,VALID,97.0918,VALID,0,VALID,18.7098,VALID,122,VALID,0,
2013-03-23, 03:22:04,VALID,914.552,VALID,0,VALID,97.1147,VALID,0.107441,VALID,18.7098,VALID,125,VALID,0,
2013-03-23, 03:23:04,VALID,914.561,VALID,0,VALID,97.1223,VALID,0,VALID,18.7098,VALID,121,VALID,0,
2013-03-23, 03:24:04,VALID,914.576,VALID,0,VALID,97.1528,VALID,0,VALID,18.6903,VALID,120,VALID,0,
2013-03-23, 03:25:04,VALID,914.582,VALID,0,VALID,97.1833,VALID,0.107441,VALID,18.6903,VALID,132,VALID,0,
2013-03-23, 03:26:04,VALID,914.535,VALID,0,VALID,97.1833,VALID,0,VALID,18.6903,VALID,131,VALID,0,
2013-03-23, 03:27:04,VALID,914.573,VALID,0,VALID,97.2214,VALID,0.107441,VALID,18.6889,VALID,129,VALID,0,
2013-03-23, 03:28:04,VALID,914.54,VALID,0,VALID,97.2367,VALID,0,VALID,18.7098,VALID,133,VALID,0,
2013-03-23, 03:29:04,VALID,914.53,VALID,0,VALID,97.2367,VALID,0,VALID,18.7293,VALID,138,VALID,0,
2013-03-23, 03:30:04,VALID,914.499,VALID,0,VALID,97.2367,VALID,0.107441,VALID,18.7293,VALID,134,VALID,0,
2013-03-23, 03:31:04,VALID,914.533,VALID,0,VALID,97.2519,VALID,0,VALID,18.7308,VALID,124,VALID,0,
2013-03-23, 03:32:04,VALID,914.524,VALID,0,VALID,97.2595,VALID,0,VALID,18.6903,VALID,130,VALID,0,
2013-03-23, 03:33:04,VALID,914.489,VALID,0,VALID,97.2367,VALID,0,VALID,18.7098,VALID,128,VALID,0,
2013-03-23, 03:34:04,VALID,914.523,VALID,0,VALID,97.1757,VALID,0,VALID,18.7878,VALID,118,VALID,0,
2013-03-23, 03:35:04,VALID,914.534,VALID,0,VALID,97.0918,VALID,0.107441,VALID,18.8073,VALID,124,VALID,0,
2013-03-23, 03:36:04,VALID,914.546,VALID,0,VALID,97.0308,VALID,0,VALID,18.8073,VALID,134,VALID,0,
2013-03-23, 03:37:04,VALID,914.534,VALID,0,VALID,96.9775,VALID,0,VALID,18.7878,VALID,121,VALID,0,
2013-03-23, 03:38:04,VALID,914.549,VALID,0,VALID,96.9241,VALID,0,VALID,18.7683,VALID,120,VALID,0,
2013-03-23, 03:39:04,VALID,914.516,VALID,0,VALID,96.8784,VALID,0.107441,VALID,18.7293,VALID,125,VALID,0,
2013-03-23, 03:40:04,VALID,914.532,VALID,0,VALID,96.8631,VALID,0.107441,VALID,18.7293,VALID,135,VALID,0,
2013-03-23, 03:41:04,VALID,914.516,VALID,0,VALID,96.8631,VALID,0,VALID,18.7113,VALID,146,VALID,0,
2013-03-23, 03:42:04,VALID,914.496,VALID,0,VALID,96.8403,VALID,0,VALID,18.6918,VALID,134,VALID,0,
2013-03-23, 03:43:04,VALID,914.471,VALID,0,VALID,96.825,VALID,0,VALID,18.6918,VALID,162,VALID,0,
2013-03-23, 03:44:04,VALID,914.469,VALID,0,VALID,96.764,VALID,0,VALID,18.7503,VALID,163,VALID,0,
2013-03-23, 03:45:04,VALID,914.459,VALID,0,VALID,96.6725,VALID,0,VALID,18.8477,VALID,133,VALID,0,
2013-03-23, 03:46:04,VALID,914.476,VALID,0,VALID,96.5048,VALID,0,VALID,18.9062,VALID,137,VALID,0,
2013-03-23, 03:47:04,VALID,914.499,VALID,0,VALID,96.36,VALID,0,VALID,18.9452,VALID,164,VALID,0,
2013-03-23, 03:48:04,VALID,914.494,VALID,0,VALID,96.177,VALID,0,VALID,18.9452,VALID,134,VALID,0,
2013-03-23, 03:49:04,VALID,914.466,VALID,0,VALID,96.0779,VALID,0,VALID,18.9257,VALID,166,VALID,0,
2013-03-23, 03:50:04,VALID,914.5,VALID,0,VALID,95.9636,VALID,0,VALID,18.9257,VALID,154,VALID,0,
2013-03-23, 03:51:04,VALID,914.45,VALID,0,VALID,95.9026,VALID,0,VALID,18.8867,VALID,148,VALID,0,
2013-03-23, 03:52:04,VALID,914.455,VALID,0,VALID,95.9026,VALID,0,VALID,18.8463,VALID,173,VALID,0,
2013-03-23, 03:53:04,VALID,914.437,VALID,0,VALID,95.8492,VALID,0,VALID,18.8477,VALID,149,VALID,0,
2013-03-23, 03:54:04,VALID,914.438,VALID,0,VALID,95.8568,VALID,0,VALID,18.8268,VALID,144,VALID,0,
2013-03-23, 03:55:04,VALID,914.43,VALID,0,VALID,95.8416,VALID,0,VALID,18.8297,VALID,154,VALID,0,
2013-03-23, 03:56:04,VALID,914.409,VALID,0,VALID,95.8035,VALID,0,VALID,18.8282,VALID,152,VALID,0,
2013-03-23, 03:57:04,VALID,914.387,VALID,0,VALID,95.8187,VALID,0,VALID,18.8087,VALID,145,VALID,0,
2013-03-23, 03:58:04,VALID,914.365,VALID,0,VALID,95.7882,VALID,0,VALID,18.8087,VALID,145,VALID,0,